Date,TemperatureHighF,TemperatureAvgF,TemperatureLowF,DewpointHighF,DewpointAvgF,DewpointLowF,HumidityHigh,HumidityAvg,HumidityLow,PressureMaxIn,PressureMinIn,WindSpeedMaxMPH,WindSpeedAvgMPH,GustSpeedMaxMPH,PrecipitationSumIn
2013-1-1,34.0,27.9,15.8,25.4,15.0,3.5,74,59,43,29.72,29.46,25,12,0,0.00
2013-1-2,25.9,16.2,7.3,9.1,4.2,-4.0,71,59,45,29.90,29.70,26,11,0,0.00
2013-1-3,26.4,16.6,8.2,10.7,3.3,-1.8,69,56,40,29.95,29.79,20,8,0,0.00
2013-1-4,35.8,29.2,18.0,25.3,20.1,11.0,80,69,59,29.79,29.57,18,10,0,0.00
2013-1-5,38.1,32.4,23.2,26.5,18.5,11.4,71,57,38,30.09,29.58,23,9,0,0.00
2013-1-6,40.5,30.0,22.1,27.6,21.3,12.7,84,70,53,30.07,29.74,7,3,0,0.00
2013-1-7,33.6,28.2,20.5,25.0,18.6,12.1,87,68,49,30.24,29.77,16,6,0,0.00
2013-1-8,43.5,36.0,29.3,30.3,25.6,16.6,83,66,51,30.21,30.04,20,8,0,0.00
2013-1-9,43.2,35.4,27.0,35.1,28.0,21.9,89,75,57,30.27,29.71,17,6,0,0.00
2013-1-10,44.4,39.8,32.7,31.3,26.6,22.2,73,59,48,30.36,29.75,31,13,0,0.00
2013-1-11,41.9,34.8,26.8,35.8,24.9,18.1,80,67,45,30.39,30.09,16,6,0,0.00
2013-1-12,44.1,41.2,37.9,41.5,38.2,35.1,96,89,76,30.10,29.95,14,6,0,0.01
2013-1-13,45.9,42.3,40.1,44.8,41.0,38.8,96,95,93,29.99,29.78,16,6,0,0.00
2013-1-14,60.4,45.4,37.0,47.5,38.2,25.6,95,78,49,30.04,29.70,14,6,0,0.00
2013-1-15,41.9,35.7,32.2,25.9,22.8,19.7,71,59,46,30.16,30.06,10,3,0,0.00
2013-1-16,33.8,31.9,30.4,31.6,27.3,19.8,93,84,58,30.11,29.61,13,6,0,0.03
2013-1-17,43.2,31.9,17.4,31.4,21.5,2.6,92,66,42,29.96,29.60,16,8,0,0.35
2013-1-18,23.7,17.5,9.9,10.8,0.5,-6.4,60,47,28,30.25,29.94,21,9,0,0.00
2013-1-19,42.1,34.0,23.0,33.9,22.2,10.8,75,62,53,30.21,29.71,29,13,0,0.00
2013-1-20,47.5,41.1,28.6,37.0,29.2,14.1,76,63,45,29.69,29.28,26,16,0,0.00
2013-1-21,31.6,24.2,19.2,14.6,8.6,0.6,73,52,26,29.89,29.67,24,8,0,0.00
2013-1-22,24.1,16.9,11.8,14.7,6.6,-1.6,85,64,49,29.89,29.60,19,9,0,0.00
2013-1-23,11.8,6.2,2.7,0.3,-6.4,-9.8,65,55,44,29.94,29.86,21,13,0,0.00
2013-1-24,16.7,8.2,1.0,-0.7,-4.6,-10.4,72,56,39,29.97,29.79,27,14,0,0.00
2013-1-25,23.4,14.6,6.3,5.3,0.9,-4.8,70,55,41,30.07,29.90,20,9,0,0.00
2013-1-26,23.9,16.5,10.2,4.9,0.2,-2.7,62,49,34,29.98,29.81,22,11,0,0.00
2013-1-27,27.1,19.1,13.6,5.9,1.6,-3.0,64,46,34,30.28,29.98,22,11,0,0.00
2013-1-28,30.2,22.5,16.5,22.8,9.0,-4.9,92,60,25,30.29,29.91,10,5,0,0.00
2013-1-29,34.9,27.6,21.0,29.2,22.8,18.1,91,82,63,30.06,29.91,7,3,0,0.00
2013-1-30,49.1,42.6,31.8,47.7,41.2,29.5,96,95,91,29.99,29.28,24,10,0,0.38
2013-1-31,52.2,43.7,31.3,49.9,35.1,17.3,97,73,48,29.30,28.69,47,21,0,0.28